Regional Weather Roundup
Issued by NWS

Home | Current Version | Previous Version | Text Only | Print | Product List | Glossary Off
Versions: 1 2 3 4 5 6 7 8 9 10 11 12 13 14 15 16 17 18 19 20 21 22 23 24 25 26 27 28 29 30 31 32 33 34 35 36 37 38 39 40 41 42 43 44 45 46 47 48 49 50

000
ASUS43 KFSD 301410
RWRSD

WEATHER ROUNDUP FOR SOUTH DAKOTA
NATIONAL WEATHER SERVICE SIOUX FALLS SD
900 AM CDT THU MAR 30 2017

NOTE: "FAIR" INDICATES FEW OR NO CLOUDS BELOW 12,000 FEET WITH NO
SIGNIFICANT WEATHER AND/OR OBSTRUCTIONS TO VISIBILITY.


SDZ001>005-009-010-012>017-301500-
NORTHWEST AND NORTH CENTRAL SOUTH DAKOTA

CITY           SKY/WX    TMP DP  RH WIND       PRES   REMARKS
BUFFALO          N/A     42  39  89 S12       29.67F
FAITH            N/A     33  33 100 MISG      29.80R
MOBRIDGE       CLOUDY    36  32  85 SE6       29.86R
$$

SDZ012>016-024>037-041>051-057-063-072>074-301500-
SOUTHWEST AND SOUTH CENTRAL SOUTH DAKOTA

CITY           SKY/WX    TMP DP  RH WIND       PRES   REMARKS
RAPID CTY ARPT FOG       35  35 100 SE5       29.76F VSB 1/4
PIERRE         CLOUDY    38  34  85 SE7       29.86S
CUSTER         CLOUDY    35  33  92 CALM      29.77F
ELLSWORTH AFB  CLOUDY    38  38 100 CALM      29.75F
PHILIP         FOG       34  34 100 SE10      29.83F VSB 1/2 WCI  26
PINE RIDGE     CLOUDY    32  32 100 CALM      29.79S
SPEARFISH      FAIR      43  36  75 S6        29.75S
WINNER         CLOUDY    39  35  86 E8        29.86S
$$

SDZ004>011-016>023-039-040-301500-
NORTHEAST SOUTH DAKOTA

CITY           SKY/WX    TMP DP  RH WIND       PRES   REMARKS
ABERDEEN       CLOUDY    39  35  86 E3        29.91F
WATERTOWN      CLOUDY    37  35  92 E9        29.88S
BROOKINGS      CLOUDY    37  36  93 E10       29.86S
SISSETON         N/A     41  38  89 SE9       29.91F
$$

SDZ017-020-022-023-036>040-048>070-301500-
SOUTHEAST SOUTH DAKOTA

CITY           SKY/WX    TMP DP  RH WIND       PRES   REMARKS
SIOUX FALLS    DRIZZLE   39  37  92 E20       29.85S
HURON          CLOUDY    40  36  86 E10       29.88S
CHAMBERLAIN    CLOUDY    40  38  90 NE6       29.87F
MITCHELL       CLOUDY    42  36  79 NE10      29.88S
YANKTON        CLOUDY    39  36  87 NE14      29.84S
$$

ABBREVIATIONS USED IN REMARKS
   TC - TEMPERATURE IN CELSIUS
  WCI - WIND CHILL INDEX
   HX - HEAT INDEX
  VSB - VISIBILITY





USA.gov is the U.S. government's official web portal to all federal, state and local government web resources and services.